Вернуться в каталог

SL-8 R/B

АктивенPO
NORAD 7009·ROCKET BODY·🇷🇺 Russia

Запущен Dec 29, 1973 с Plesetsk Cosmodrome

Loading…

Ближайшие Пролёты (ближайшие 24 часа)

TLE

СвежийSource: Space-Track

Эпоха: Sep 14, 2026, 02:15 UTC

1 07009U 73109B   26257.09399042  .00000039  00000-0  23841-4 0  9998
2 07009  82.9507 316.4638 0020359 147.3575 232.6379 13.77055102647630

Отслеживайте SL-8 R/B в реальном времени с AllMySat

Download on the App Store